Regional Weather Roundup
Issued by NWS Columbia, SC

Home | Current Version | Previous Version | Text Only | Print | Product List | Glossary On
Versions: 1 2 3 4 5 6 7 8 9 10 11 12 13 14 15 16 17 18 19 20 21 22 23 24 25 26 27 28 29 30 31 32 33 34 35 36 37 38 39 40 41 42 43 44 45 46 47 48 49 50
000
ASUS42 KCAE 280810
RWRCAE
REGIONAL WEATHER ROUNDUP
NATIONAL WEATHER SERVICE COLUMBIA SC
400 AM EDT THU MAY 28 2015

NOTE: "FAIR" INDICATES FEW OR NO CLOUDS BELOW 12,000 FEET WITH NO
SIGNIFICANT WEATHER AND/OR OBSTRUCTIONS TO VISIBILITY.

NOT ALL STATIONS ARE QUALITY CONTROLLED BY THE NATIONAL
WEATHER SERVICE. USE DATA WITH CAUTION...ESPECIALLY
DEWPOINT OBSERVATIONS.

SCZ001>056-GAZ040-063>065-077-280900-
...UPSTATE SOUTH CAROLINA...

CITY           SKY/WX    TMP DP  RH WIND       PRES   REMARKS
ANDERSON       MOCLDY    67  65  93 CALM      30.19S
LIBERTY        PTSUNNY  N/A N/A N/A CALM      30.20S
SPARTANBURG    MOCLDY   N/A N/A N/A CALM      30.19F
CLEMSON        FOG       70  66  87 N3        30.21S VSB 1/4
GREENVILLE     MOCLDY    67  63  87 CALM      30.20F
GREENWOOD      CLOUDY    68  66  93 CALM      30.20S
GREER          MOCLDY    65  64  97 CALM      30.18F
ROCK HILL      PTCLDY    67  66  97 SW6       30.20S
CHESTER        MOSUNNY   70  68  94 CALM      30.20S
LAURENS        PTSUNNY   70  70 100 CALM      30.19F


...CENTRAL SOUTH CAROLINA...

CITY           SKY/WX    TMP DP  RH WIND       PRES   REMARKS
COLUMBIA APT   PTCLDY    69  65  86 E3        30.18S
COLUMBIA OWENS PTCLDY    68  66  93 CALM      30.20S
DARLINGTON     PTCLDY    68  63  83 CALM      30.20F
FLORENCE       MOCLDY    70  68  93 CALM      30.19F
MCENTIRE ANGB  PTCLDY    66  65  98 CALM      30.19F FOG
ORANGEBURG     CLEAR     66  64  93 CALM      30.18F
SUMTER SHAW    CLEAR     68  66  94 CALM      30.17F FOG
NEWBERRY       MOSUNNY   68  68 100 S3        30.21S
AIKEN          CLOUDY    68  63  83 SE5       30.22F
BARNWELL       FAIR      66  66 100 CALM      30.19F
MANNING        FAIR      63  63 100 CALM      30.18F
CAMDEN         FAIR      66  66 100 CALM      30.20S FOG
LANCASTER      LGT RAIN  66  66 100 S3        30.20S
WINNSBORO      MOSUNNY   68  68 100 SE3       30.19F


...EASTERN AND COASTAL SOUTH CAROLINA...

CITY           SKY/WX    TMP DP  RH WIND       PRES   REMARKS
MYRTLE BEACH   MOCLDY    73  64  73 SE6       30.21S
N MYRTLE BCH   PTCLDY    73  65  75 SE3       30.19F
CONWAY         FAIR      63  63 100 CALM      30.20S FOG
MARION         PTSUNNY   68  68 100 CALM      30.20S
HARTSVILLE     FAIR      66  64  94 CALM      30.18F
FLORENCE       MOCLDY    70  68  93 CALM      30.19F
DARLINGTON     PTCLDY    68  63  83 CALM      30.20F
CHARLESTON APT CLEAR     70  67  90 CALM      30.17F
MOUNT PLEASANT FAIR      66  66 100 MISG      30.18F
WALTERBORO     SUNNY     63  63 100 CALM      30.19S
BEAUFORT       CLEAR     70  68  93 NW3       30.17F


...EASTERN GEORGIA...

CITY           SKY/WX    TMP DP  RH WIND       PRES   REMARKS
AUGUSTA BUSH F MOCLDY    69  67  93 CALM      30.17F
AUGUSTA DANIEL CLOUDY    73  65  75 S3        30.19S
THOMSON        CLOUDY    70  70 100 CALM      30.23S
WASHINGTON     FAIR      72  72 100 SW3       30.20S
CLAXTON        FAIR      63  63 100 CALM      30.17F
SYLVANIA       SUNNY     66  66 100 CALM      30.19S
STATESBORO     CLEAR     65  32  29 CALM      30.17F
SAVANNAH       CLEAR     67  65  93 CALM      30.17F


...SOUTHERN NORTH CAROLINA...

CITY           SKY/WX    TMP DP  RH WIND       PRES   REMARKS
CHARLOTTE      MOCLDY    68  66  93 CALM      30.20S
MONROE         PTCLDY    68  66  93 SW3       30.18F
WADESBORO        N/A     65  64  95 CALM      30.19S FOG
ROCKINGHAM     PTSUNNY   69  67  95 S3        30.19F
RUTHERFORDTON  PTCLDY    62  62 100 CALM      30.21S
ASHEVILLE      MOCLDY    64  61  90 NW6       30.25F

$$


USA.gov is the U.S. government's official web portal to all federal, state and local government web resources and services.